Location: Bremen
(53.0793°N, 8.8017°E)
Time: 14:05:14
(UTC+01:00)

Transit 2A Rocket - All Passes

Search period start: 08 December 2021 00:00
Search period end: 18 December 2021 00:00
Orbit: 584 x 918 km, 66.7° (Epoch: 07 December)

Date Brightness Start Highest point End Pass type
(mag) Time Alt. Az. Time Alt. Az. Time Alt. Az.
08 Dec - 06:17:22 10° SSE 06:22:10 27° ESE 06:27:10 10° NE visible
08 Dec - 07:58:24 10° SW 08:04:17 79° NW 08:10:28 10° NE daylight
08 Dec - 09:42:32 10° W 09:47:51 31° NNW 09:53:16 10° NE daylight
08 Dec - 11:27:35 10° NW 11:32:20 23° N 11:37:04 10° NE daylight
08 Dec - 13:11:20 10° NW 13:16:48 32° NNE 13:22:07 10° E daylight
08 Dec - 14:54:08 10° NW 15:00:19 83° NE 15:06:10 10° SE daylight
08 Dec - 16:37:31 10° NW 16:42:22 26° WSW 16:47:00 10° SSW daylight
09 Dec - 05:36:05 10° SE 05:39:52 18° ESE 05:43:47 10° ENE visible
09 Dec - 07:15:44 10° SSW 07:21:34 76° SE 07:27:43 10° NE visible
09 Dec - 08:59:13 10° W 09:04:46 38° NNW 09:10:30 10° NE daylight
09 Dec - 10:44:18 10° WNW 10:49:05 23° N 10:53:53 10° NE daylight
09 Dec - 12:28:28 10° NW 12:33:40 27° NNE 12:38:44 10° ENE daylight
09 Dec - 14:11:25 10° NW 14:17:30 61° NE 14:23:19 10° ESE daylight
09 Dec - 15:54:25 10° NW 15:59:59 38° WSW 16:05:15 10° S daylight
10 Dec - 04:56:06 10° ESE 04:57:42 11° E 04:59:20 10° E visible
10 Dec - 06:33:21 10° SSW 06:38:59 52° ESE 06:44:55 10° NE visible
10 Dec - 08:16:02 10° WSW 08:21:47 48° NW 08:27:46 10° NE daylight
10 Dec - 10:00:55 10° WNW 10:05:51 25° NNW 10:10:51 10° NE daylight
10 Dec - 11:45:31 10° NW 11:50:28 24° NNE 11:55:21 10° ENE daylight
10 Dec - 13:28:41 10° NW 13:34:36 46° NE 13:40:16 10° ESE daylight
10 Dec - 15:11:32 10° NW 15:17:30 56° WSW 15:23:06 10° SSE daylight
10 Dec - 16:56:36 10° WNW 16:58:50 12° W 17:01:01 10° WSW visible
11 Dec - 05:51:17 10° S 05:56:30 35° ESE 06:01:59 10° NE visible
11 Dec - 07:33:02 10° SW 07:38:54 65° NW 07:45:03 10° NE visible
11 Dec - 09:17:31 10° WNW 09:22:41 28° NNW 09:27:56 10° NE daylight
11 Dec - 11:02:27 10° NW 11:07:15 23° N 11:11:59 10° NE daylight
11 Dec - 12:45:57 10° NW 12:51:36 36° NNE 12:57:03 10° E daylight
11 Dec - 14:28:44 10° NW 14:34:52 81° SW 14:40:40 10° SSE daylight
11 Dec - 16:12:31 10° WNW 16:16:38 19° WSW 16:20:37 10° SSW daylight
12 Dec - 05:09:37 10° SSE 05:14:08 24° ESE 05:18:51 10° ENE visible
12 Dec - 06:50:13 10° SW 06:56:08 88° NW 07:02:19 10° NE visible
12 Dec - 08:34:08 10° W 08:39:34 33° NNW 08:45:06 10° NE daylight
12 Dec - 10:19:14 10° NW 10:23:59 23° N 10:28:44 10° NE daylight
12 Dec - 12:03:09 10° NW 12:08:30 30° NNE 12:13:43 10° E daylight
12 Dec - 13:46:00 10° NW 13:52:09 74° NE 13:57:58 10° SE daylight
12 Dec - 15:29:13 10° NW 15:34:21 29° WSW 15:39:13 10° S daylight
13 Dec - 04:28:37 10° SE 04:31:54 15° ESE 04:35:16 10° ENE visible
13 Dec - 06:07:39 10° SSW 06:13:28 67° ESE 06:19:33 10° NE visible
13 Dec - 07:50:52 10° WSW 07:56:31 41° NNW 08:02:20 10° NE visible
13 Dec - 09:35:54 10° WNW 09:40:45 24° N 09:45:36 10° NE daylight
13 Dec - 11:20:15 10° NW 11:25:21 26° NNE 11:30:20 10° ENE daylight
13 Dec - 13:03:16 10° NW 13:09:19 54° NE 13:15:02 10° ESE daylight
13 Dec - 14:46:13 10° NW 14:51:56 44° WSW 14:57:18 10° S daylight
14 Dec - 05:25:22 10° S 05:30:54 46° ESE 05:36:43 10° NE visible
14 Dec - 07:07:44 10° WSW 07:13:34 54° NW 07:19:37 10° NE visible
14 Dec - 08:52:31 10° WNW 08:57:33 26° NNW 09:02:37 10° NE daylight
14 Dec - 10:37:16 10° NW 10:42:09 24° N 10:46:57 10° ENE daylight
14 Dec - 12:20:32 10° NW 12:26:21 42° NE 12:31:55 10° ESE daylight
14 Dec - 14:03:21 10° NW 14:09:23 64° WSW 14:15:03 10° SSE daylight
14 Dec - 15:47:48 10° WNW 15:50:52 14° WSW 15:53:52 10° SW daylight
15 Dec - 04:43:26 10° S 04:48:28 31° ESE 04:53:43 10° NE visible
15 Dec - 06:24:47 10° SW 06:30:44 72° NW 06:36:54 10° NE visible
15 Dec - 08:09:06 10° W 08:14:23 30° NNW 08:19:44 10° NE daylight
15 Dec - 09:54:08 10° NW 09:58:54 23° N 10:03:37 10° NE daylight
15 Dec - 11:37:47 10° NW 11:43:20 34° NNE 11:48:40 10° E daylight
15 Dec - 13:20:35 10° NW 13:26:44 90° NE 13:32:31 10° SE daylight
15 Dec - 15:04:08 10° WNW 15:08:39 23° WSW 15:12:58 10° SSW daylight
16 Dec - 04:01:58 10° SSE 04:06:09 21° ESE 04:10:29 10° ENE visible
16 Dec - 05:42:04 10° SW 05:47:59 83° SE 05:54:10 10° NE visible
16 Dec - 07:25:46 10° W 07:31:17 36° NNW 07:36:56 10° NE visible
16 Dec - 09:10:52 10° NW 09:15:39 23° N 09:20:24 10° NE daylight
16 Dec - 10:54:57 10° NW 11:00:12 28° NNE 11:05:19 10° E daylight
16 Dec - 12:37:50 10° NW 12:43:58 66° NE 12:49:44 10° SE daylight
16 Dec - 14:20:58 10° NW 14:26:18 34° WSW 14:31:21 10° S daylight
17 Dec - 03:21:22 10° SE 03:23:56 13° E 03:26:34 10° ENE visible
17 Dec - 04:59:36 10° SSW 05:05:21 58° ESE 05:11:23 10° NE visible
17 Dec - 06:42:32 10° WSW 06:48:16 45° NW 06:54:12 10° NE visible
17 Dec - 08:27:31 10° WNW 08:32:25 24° NNW 08:37:20 10° NE daylight
17 Dec - 10:12:02 10° NW 10:17:02 25° NNE 10:21:55 10° ENE daylight
17 Dec - 11:55:08 10° NW 12:01:05 49° NE 12:06:44 10° ESE daylight
17 Dec - 13:38:01 10° NW 13:43:51 50° WSW 13:49:19 10° SSE daylight
17 Dec - 15:24:17 10° W 15:25:03 10° W 15:25:50 10° WSW daylight
